Wind_Speed
25 25 25 25 25 26 26 26 25 25 25 25 25 25 25 24 23 23 23 23 23 23 23 23 23 23 23 23 23 24 24 24 24 24 24 24 23 23
24 24 23 23 23 24 24 24 25 24 24 25 25 24 24 23 23 23 22 23 22 22 23 23 23 23 23 23 23 23 24 24 23 24 23 23 23 22
24 23 23 22 23 23 24 24 24 24 24 23 24 24 24 23 23 23 22 23 23 22 23 23 23 22 23 23 23 23 23 23 23 23 23 23 22 21
24 23 22 22 23 22 23 23 23 24 23 23 23 24 24 23 23 23 23 23 23 23 23 23 23 23 23 23 23 22 23 23 23 22 22 22 22 22
23 23 22 22 22 22 22 22 22 23 23 23 22 23 24 23 23 23 23 23 23 23 23 23 24 24 23 23 23 23 22 23 23 23 22 22 22 22
22 22 21 21 21 21 21 21 21 21 22 22 22 22 23 23 23 23 23 22 23 23 23 23 23 23 22 22 23 23 24 23 22 22 21 21 21 21
21 21 21 21 22 22 21 21 20 20 21 21 21 21 22 22 22 22 21 21 21 21 21 21 21 21 22 22 22 23 23 22 22 22 21 21 21 20
20 21 21 21 21 21 21 21 21 20 21 21 21 21 20 20 21 20 20 20 19 19 19 19 20 20 20 21 21 21 21 21 20 20 20 20 20 20
20 20 20 20 20 20 20 19 19 19 20 20 20 19 20 20 20 20 20 20 19 18 18 18 18 19 19 20 20 19 19 19 19 19 20 20 20 20
20 19 19 19 19 19 19 18 18 19 20 20 20 19 19 19 19 19 18 18 17 17 17 17 17 17 17 18 18 19 19 19 19 19 19 19 19 19
18 18 17 17 17 17 17 18 18 18 19 19 19 19 19 19 18 18 18 18 17 16 16 16 16 17 17 17 18 18 19 18 18 18 18 19 19 19
16 16 16 15 15 14 14 15 16 17 17 17 18 18 18 17 17 17 17 17 16 16 16 15 16 16 16 16 16 17 17 17 17 17 17 18 18 18
14 14 14 13 12 13 13 13 13 14 15 15 16 16 16 16 16 16 16 16 16 15 15 15 14 14 14 15 15 15 16 16 16 17 17 18 18 18
12 11 11 11 11 11 11 11 11 11 12 12 13 13 13 14 14 14 15 15 15 14 14 14 14 13 13 14 15 15 16 16 17 17 18 18 18 19
10 10 9 9 9 10 9 9 10 10 10 10 11 11 11 12 12 12 13 13 13 13 13 13 13 13 13 14 15 16 17 17 18 18 18 18 18 18
9 8 8 7 8 8 8 8 8 9 9 9 9 10 10 10 11 11 11 12 12 12 13 13 13 13 13 14 15 16 16 17 17 17 17 17 17 18
6 7 7 7 7 6 7 7 7 7 7 8 9 10 10 10 10 11 11 11 11 12 12 13 13 14 14 15 16 16 17 18 18 17 18 18 19 19
7 6 7 6 6 6 6 7 7 7 7 7 8 9 9 10 10 11 11 12 12 13 13 14 14 15 15 16 17 17 18 18 18 18 18 19 20 20
7 7 7 6 5 5 5 6 6 7 7 7 8 8 9 10 10 11 11 12 13 14 14 14 15 15 16 17 17 18 18 18 19 19 20 21 21 22
7 7 7 6 5 5 5 6 7 7 8 8 8 9 9 10 11 12 12 13 14 15 15 16 15 16 16 17 18 18 18 19 20 21 22 23 23 24
7 7 8 7 6 6 6 6 7 8 9 9 10 10 11 12 13 14 15 15 16 16 17 17 18 18 18 19 18 19 20 21 23 24 25 25 26 26
8 9 9 8 8 8 9 9 10 10 11 11 12 12 12 13 14 15 16 16 17 18 18 19 19 20 20 21 22 23 23 24 25 26 27 28 29 29
9 9 9 9 9 10 10 11 12 12 12 12 13 13 14 15 15 16 17 18 19 19 20 21 22 23 24 25 25 26 26 27 28 28 28 29 30 30
Wind_Direction
279 276 273 271 270 271 271 270 269 269 267 265 265 264 265 265 262 263 264 264 265 264 263 264 263 261 263 262 263 264 265 265 268 269 271 272 273 274
279 277 274 272 271 271 270 269 268 268 268 265 265 264 264 264 263 264 265 263 264 263 263 262 260 260 262 263 263 264 266 268 267 268 270 273 273 275
277 276 275 272 270 269 268 267 267 267 266 263 262 261 259 261 262 262 261 262 263 263 262 261 259 260 260 261 262 263 264 265 265 267 269 271 272 273
277 276 275 272 271 269 268 266 266 265 263 261 262 261 260 261 262 261 259 260 261 263 262 260 259 260 261 261 262 263 263 262 263 268 268 270 271 272
278 275 273 272 271 271 270 266 264 263 261 261 259 258 259 262 262 263 260 260 262 263 263 262 261 259 260 261 261 261 261 262 265 267 268 268 270 270
278 276 273 271 271 272 272 270 265 262 261 261 258 258 260 260 262 262 261 262 264 264 262 262 260 259 260 260 260 260 261 262 265 269 267 267 268 268
279 277 274 273 272 271 273 272 268 264 262 262 259 259 260 261 260 260 261 262 263 265 265 262 260 259 258 259 258 259 261 261 265 266 266 265 267 268
281 278 275 273 273 271 271 271 269 266 264 261 259 260 260 259 258 258 258 260 262 263 264 263 261 258 258 258 258 259 261 261 263 263 264 266 269 271
282 279 276 273 272 269 266 268 266 264 263 261 260 261 259 258 258 258 258 259 262 262 262 262 261 259 257 258 258 258 261 263 263 264 267 269 270 270
285 281 277 275 271 268 265 264 264 263 262 262 261 260 260 257 255 257 257 257 257 258 259 262 261 259 258 258 259 262 263 264 264 264 267 268 267 267
287 283 279 277 272 269 266 262 263 262 261 261 259 258 259 257 256 256 256 256 256 257 259 260 259 259 259 261 262 261 262 262 263 265 267 267 266 267
289 286 284 280 274 266 265 263 262 261 260 260 257 256 256 255 253 253 255 254 254 256 258 256 254 257 260 262 263 261 261 263 264 266 268 269 268 269
291 287 285 281 276 268 266 267 266 263 260 260 259 257 252 251 251 251 252 251 251 251 252 252 254 256 259 261 262 262 263 264 265 268 270 272 272 272
293 289 286 280 273 271 268 265 264 264 261 261 260 256 250 249 250 249 248 247 247 248 249 251 253 255 258 260 261 263 265 266 267 269 270 273 274 275
293 291 287 282 276 270 268 266 264 261 255 255 254 252 250 249 248 248 246 246 245 247 249 253 255 255 259 262 265 267 268 268 270 270 271 273 275 275
299 295 289 281 278 271 266 266 265 261 257 255 250 247 246 246 243 242 242 242 244 247 250 253 257 260 261 264 268 270 272 273 273 272 272 274 277 277
306 302 297 288 283 275 268 265 263 267 265 256 250 246 247 248 247 247 245 243 246 249 253 255 260 266 269 269 270 271 274 276 275 274 273 274 276 277
315 309 304 298 284 276 272 268 267 274 272 265 261 255 254 254 252 253 251 248 251 255 259 263 265 269 270 271 273 276 278 278 275 274 274 275 276 278
322 317 313 307 299 286 279 276 274 274 274 272 266 258 258 260 259 257 259 258 257 258 262 265 268 272 272 274 276 278 278 277 277 277 277 277 277 278
321 317 316 310 303 298 289 285 282 280 274 274 272 266 266 267 263 264 267 266 264 264 265 267 269 272 274 277 278 279 280 280 279 279 280 279 279 280
320 318 314 309 302 299 292 288 286 281 279 278 279 275 273 274 274 273 272 270 268 268 269 269 271 273 275 277 279 281 283 283 282 282 283 283 282 283
317 315 311 301 296 295 291 287 286 284 282 282 281 278 278 277 278 277 277 274 272 272 273 273 273 274 277 279 280 281 282 282 282 282 283 284 285 286
320 320 319 312 304 300 298 294 289 289 287 283 281 280 279 278 277 278 279 278 277 276 277 278 277 278 279 281 281 282 282 281 283 283 283 284 285 287
Height
5763 5763 5763 5763 5763 5763 5764 5765 5766 5766 5767 5768 5769 5770 5771 5772 5773 5775 5776 5778 5779 5780 5781 5782 5783 5784 5785 5786 5787 5787 5788 5788 5789 5789 5789 5789 5789 5789
5757 5756 5756 5756 5756 5756 5757 5757 5758 5759 5760 5761 5761 5763 5764 5765 5766 5768 5770 5771 5772 5773 5774 5775 5776 5778 5778 5779 5780 5780 5781 5782 5782 5782 5783 5783 5783 5782
5750 5750 5749 5749 5749 5749 5750 5750 5751 5752 5752 5753 5754 5755 5757 5759 5760 5761 5763 5764 5766 5767 5768 5769 5770 5770 5771 5772 5773 5774 5774 5775 5776 5776 5776 5776 5776 5776
5743 5743 5742 5742 5742 5742 5743 5743 5744 5744 5746 5747 5747 5749 5750 5752 5753 5755 5756 5758 5759 5760 5761 5762 5763 5764 5765 5765 5766 5767 5767 5768 5769 5769 5769 5770 5770 5770
5737 5736 5736 5736 5736 5736 5736 5737 5737 5738 5739 5740 5741 5742 5744 5745 5747 5749 5750 5751 5752 5753 5754 5754 5755 5756 5757 5758 5759 5760 5761 5761 5762 5762 5763 5763 5763 5764
5730 5729 5729 5729 5730 5730 5730 5730 5731 5732 5733 5734 5735 5736 5737 5739 5741 5742 5743 5744 5745 5746 5747 5747 5748 5749 5750 5751 5752 5753 5754 5754 5755 5756 5756 5756 5757 5757
5724 5723 5723 5723 5724 5724 5724 5724 5725 5726 5727 5728 5729 5730 5732 5733 5734 5736 5737 5738 5739 5740 5740 5741 5741 5742 5743 5744 5745 5746 5747 5748 5748 5749 5749 5750 5750 5751
5717 5717 5717 5717 5717 5718 5718 5719 5719 5720 5721 5722 5724 5725 5726 5727 5728 5729 5731 5732 5733 5734 5734 5735 5735 5736 5737 5738 5739 5740 5741 5741 5742 5742 5743 5743 5744 5744
5711 5711 5711 5711 5711 5712 5712 5713 5713 5714 5716 5717 5718 5719 5720 5721 5722 5724 5725 5726 5728 5728 5729 5729 5729 5730 5731 5732 5733 5733 5734 5735 5736 5736 5737 5737 5737 5738
5706 5705 5705 5705 5705 5706 5706 5707 5708 5709 5710 5711 5712 5713 5714 5715 5716 5718 5719 5720 5722 5722 5723 5724 5724 5725 5725 5726 5727 5728 5728 5729 5729 5730 5730 5731 5731 5731
5701 5700 5700 5700 5700 5700 5701 5702 5703 5703 5704 5705 5706 5707 5708 5709 5711 5712 5713 5715 5716 5717 5718 5719 5719 5720 5720 5721 5721 5722 5722 5723 5724 5724 5725 5725 5725 5725
5696 5696 5695 5695 5696 5696 5696 5697 5698 5698 5699 5700 5701 5701 5702 5704 5705 5707 5708 5709 5711 5712 5713 5714 5714 5715 5716 5716 5716 5717 5717 5718 5718 5719 5719 5719 5719 5719
5693 5692 5692 5692 5692 5692 5692 5693 5693 5694 5694 5695 5696 5697 5697 5699 5700 5701 5703 5704 5706 5707 5708 5709 5709 5710 5711 5711 5712 5712 5712 5713 5713 5713 5713 5713 5713 5713
5690 5689 5689 5689 5689 5689 5689 5689 5690 5690 5691 5691 5692 5692 5693 5694 5695 5697 5698 5699 5701 5702 5703 5704 5705 5706 5706 5707 5708 5708 5708 5708 5708 5708 5708 5708 5708 5707
5687 5686 5686 5686 5686 5686 5686 5687 5687 5687 5687 5688 5689 5689 5690 5691 5692 5693 5694 5696 5697 5698 5699 5700 5701 5701 5702 5703 5703 5703 5703 5703 5703 5702 5702 5702 5702 5702
5685 5684 5684 5684 5684 5684 5684 5684 5684 5684 5684 5685 5686 5686 5687 5688 5689 5690 5691 5692 5693 5694 5695 5696 5697 5697 5698 5698 5698 5698 5698 5697 5697 5697 5697 5696 5696 5696
5684 5683 5683 5682 5682 5682 5682 5682 5682 5682 5682 5682 5683 5684 5685 5685 5686 5687 5688 5689 5690 5691 5692 5692 5693 5693 5693 5693 5693 5693 5693 5692 5691 5691 5691 5691 5690 5690
5683 5682 5682 5680 5680 5680 5680 5680 5680 5681 5681 5681 5681 5681 5682 5683 5683 5684 5685 5686 5686 5687 5688 5688 5688 5688 5688 5688 5688 5687 5687 5686 5686 5685 5685 5685 5684 5683
5683 5682 5681 5679 5679 5679 5679 5679 5679 5679 5679 5679 5679 5679 5680 5680 5680 5681 5681 5682 5683 5683 5683 5683 5683 5683 5683 5683 5683 5682 5681 5680 5680 5679 5679 5678 5678 5677
5682 5681 5680 5679 5678 5678 5678 5678 5677 5677 5677 5677 5677 5677 5677 5677 5677 5677 5678 5678 5678 5678 5678 5678 5678 5678 5678 5678 5677 5676 5675 5674 5674 5673 5672 5671 5670 5669
5681 5680 5679 5678 5678 5677 5676 5676 5676 5675 5675 5675 5675 5674 5674 5674 5674 5674 5673 5674 5674 5674 5673 5673 5673 5672 5672 5671 5671 5670 5669 5668 5666 5665 5664 5663 5662 5660
5680 5679 5678 5677 5676 5675 5675 5674 5674 5673 5672 5672 5671 5671 5671 5670 5670 5670 5669 5669 5669 5668 5668 5668 5667 5667 5666 5665 5664 5663 5662 5661 5659 5657 5655 5654 5652 5650
5680 5678 5677 5676 5675 5673 5673 5672 5671 5670 5669 5668 5668 5667 5667 5666 5666 5665 5665 5664 5663 5663 5662 5661 5661 5660 5659 5657 5656 5655 5653 5652 5650 5649 5647 5645 5643 5641